Notices

What's New in latest Release from April 7th, 2021:

- Updated Glossary, including Speed of Maximum Gust, and Total Hourly Precipitation

- Updated national and regional climate services offices contacts and prices information

- Addition of station inventory lists for 1981-2010, 1971-2000, and 1961-1990 Normals.

If you haven't already, please take our survey and provide feedback about our website: https://eccc.sondage-survey.ca/f/LanguageSelection.aspx?s=442ca660-fcf1-47c0-95a9-59707d6fd709

Hourly Data Report for December 25, 2020

SHEARWATER RCS
NOVA SCOTIA
Current Station Operator: ECCC - MSC

44°37'47.000" N
63°30'48.000" W
24.00 m
8205092
71264
AAW

Download Data

Hourly Data (December 2020)
Hourly Data Report for December 25, 2020
TIME
LST
Temp Definition
°C
Dew Point Definition
°C
Rel Hum Definition
%
Precip. Amount Definition
mm

Wind Dir Definition
10's deg

Wind Spd Definition
km/h
Visibility Definition
km
Stn Press Definition
kPa
Hmdx Definition


Wind Chill Definition


Weather Definition


00:00 8.1 6.5 89 0.0 15 15   102.74     LegendNANA
01:00 7.9 6.6 91 0.0 16 14   102.66     LegendNANA
02:00 8.6 7.5 93 0.0 16 23   102.59     LegendNANA
03:00 8.5 7.8 95 0.0 16 23   102.68     LegendNANA
04:00 9.0 8.0 93 0.0 15 23   102.52     LegendNANA
05:00 9.0 7.7 91 0.0 15 25   102.46     LegendNANA
06:00 9.6 8.0 90 0.0 14 29   102.36     LegendNANA
07:00 9.4 8.0 91 0.0 14 24   102.34     LegendNANA
08:00 9.6 8.2 91 0.0 14 23   102.26     LegendNANA
09:00 9.9 8.6 92 0.0 15 27   102.26     LegendNANA
10:00 10.4 8.6 89 0.0 14 25   102.25     LegendNANA
11:00 11.1 9.2 88 0.0 15 30   102.16     LegendNANA
12:00 10.8 9.1 90 0.0 15 24   102.07     LegendNANA
13:00 11.4 9.5 88 0.0 15 27   101.95     LegendNANA
14:00 11.2 9.4 89 0.0 15 28   101.91     LegendNANA
15:00 10.9 9.4 90 0.0 15 25   101.86     LegendNANA
16:00 10.6 9.3 91 0.0 14 23   101.79     LegendNANA
17:00 10.6 9.3 92 0.0 14 22   101.77     LegendNANA
18:00 10.6 9.5 92 0.0 14 22   101.73     LegendNANA
19:00 10.9 9.8 93 0.0 14 25   101.64     LegendNANA
20:00 11.0 10.1 94 0.0 14 28   101.58     LegendNANA
21:00 10.9 10.1 95 0.0 13 28   101.51     LegendNANA
22:00 11.2 10.0 92 0.0 14 29   101.47     LegendNANA
23:00 11.3 10.1 92 0.0 13 27   101.40     LegendNANA

Notes on Data Quality.

Legend

  • E = Estimated
  • M = Missing
  • NA = Not Available*
  • [empty] = Indicates an unobserved value
Date modified: